Location: Hilton Head Island
(32.2163°N, 80.7526°W)
Time: 15:45:41
(UTC-05:00)

Explorer 11/Cluster Stage 4 - Pass Details

Date: 17 February 2026
Orbit: 463 x 1176 km, 28.8° (Epoch: 6 March)

Event Time Altitude Azimuth Distance (km) Brightness Sun altitude
Rises 11:43:51 0° 213° (SSW) 3,035 10.0 44.2°
Reaches altitude 10° 11:47:36 10° 186° (S) 1,955 9.5 44.4°
Maximum altitude 11:49:40 13° 159° (SSE) 1,685 9.5 44.5°
Drops below altitude 10° 11:51:36 10° 131° (SE) 1,801 9.2 44.7°
Sets 11:54:46 0° 102° (ESE) 2,588 9.5 44.8°
